GW6267 Weather Reports


time (UTC)temp
F
wind
direction
speed
knots
gust
knots
rain 1hr
in
rain 24hr
in
rain mn
in
humidity
%
barometer
mb
20260509022003 66 60 7.0 14.8 0.00 0.00 0.00 48 1027.7
20260509021025 65 61 7.8 13.0 0.00 0.00 0.00 49 1027.9
20260509020004 65 53 6.1 15.6 0.00 0.00 0.00 50 1028.0
20260509015003 64 74 7.8 17.4 0.00 0.00 0.00 51 1027.9
20260509014004 63 63 7.8 14.8 0.00 0.00 0.00 52 1028.0
20260509013004 62 65 9.6 19.1 0.00 0.00 0.00 52 1028.0
20260509012003 62 76 7.8 16.5 0.00 0.00 0.00 52 1028.1
20260509011003 62 68 8.7 15.6 0.00 0.00 0.00 54 1028.1
20260509010004 61 67 8.7 15.6 0.00 0.00 0.00 54 1028.2
20260509005003 61 70 6.1 12.2 0.00 0.00 0.00 56 1028.3
20260509004024 60 70 6.1 12.2 0.00 0.00 0.00 57 1028.2
20260509003003 59 71 5.2 14.8 0.00 0.00 0.00 58 1028.2
20260509002024 58 84 6.1 12.2 0.00 0.00 0.00 59 1028.1
20260509001003 58 86 5.2 10.4 0.00 0.00 0.00 59 1028.1
20260509000004 57 82 5.2 9.6 0.00 0.00 0.00 60 1028.1
20260508235003 57 81 4.3 9.6 0.00 0.00 0.00 60 1028.0
20260508234003 57 70 2.6 6.1 0.00 0.00 0.00 61 1028.1
20260508233024 56 74 3.5 9.6 0.00 0.00 0.00 62 1027.9
20260508232024 56 82 6.1 13.0 0.00 0.00 0.00 62 1027.7
20260508231003 56 80 4.3 8.7 0.00 0.00 0.00 63 1027.7
20260508230024 56 72 4.3 8.7 0.00 0.00 0.00 62 1027.8
20260508225003 56 77 4.3 8.7 0.00 0.00 0.00 62 1027.7
20260508224003 56 81 5.2 9.6 0.00 0.00 0.00 62 1027.6
20260508223024 56 68 3.5 7.0 0.00 0.00 0.00 62 1027.6
20260508222003 56 75 5.2 9.6 0.00 0.00 0.00 61 1027.4
20260508221004 56 72 5.2 10.4 0.00 0.00 0.00 60 1027.5
20260508220003 56 70 4.3 9.6 0.00 0.00 0.00 60 1027.5
20260508215003 57 72 6.1 11.3 0.00 0.00 0.00 59 1027.5
20260508214024 57 72 6.1 11.3 0.00 0.00 0.00 59 1027.4
20260508213003 57 62 6.1 13.0 0.00 0.00 0.00 58 1027.3
20260508212003 58 62 7.0 12.2 0.00 0.00 0.00 58 1027.2
20260508211024 58 57 7.0 14.8 0.00 0.00 0.00 57 1027.0
20260508210003 58 71 6.1 12.2 0.00 0.00 0.00 57 1026.9
20260508205003 58 73 7.0 12.2 0.00 0.00 0.00 56 1026.9
20260508204003 58 72 7.0 13.9 0.00 0.00 0.00 56 1026.8
20260508203024 59 80 7.0 12.2 0.00 0.00 0.00 55 1026.7
20260508202003 59 76 7.8 16.5 0.00 0.00 0.00 55 1026.5
20260508201003 59 69 7.0 15.6 0.00 0.00 0.00 55 1026.4
20260508200003 59 74 7.8 13.0 0.00 0.00 0.00 54 1026.4
20260508195003 60 76 7.8 15.6 0.00 0.00 0.00 54 1026.3
20260508194025 60 75 9.6 16.5 0.00 0.00 0.00 53 1026.2
20260508193004 60 78 8.7 17.4 0.00 0.00 0.00 53 1026.1
20260508192004 60 86 9.6 19.1 0.00 0.00 0.00 53 1026.2
20260508191004 60 78 8.7 17.4 0.00 0.00 0.00 53 1026.0
20260508190025 60 77 7.8 19.1 0.00 0.00 0.00 53 1026.1
20260508185004 60 78 7.8 15.6 0.00 0.00 0.00 53 1026.2
20260508184004 60 76 7.8 13.9 0.00 0.00 0.00 53 1026.3
20260508183025 60 77 7.0 14.8 0.00 0.00 0.00 52 1026.4
20260508182004 61 76 7.0 13.9 0.00 0.00 0.00 52 1026.4
20260508181004 61 74 7.8 15.6 0.00 0.00 0.00 51 1026.3
20260508180004 61 86 7.8 14.8 0.00 0.00 0.00 51 1026.3
20260508175004 62 78 8.7 18.2 0.00 0.00 0.00 50 1026.4
20260508174004 62 82 9.6 17.4 0.00 0.00 0.00 50 1026.3
20260508173004 62 82 8.7 20.0 0.00 0.00 0.00 49 1026.1
20260508172004 62 80 7.8 15.6 0.00 0.00 0.00 49 1026.1
20260508171004 62 79 7.8 14.8 0.00 0.00 0.00 49 1026.2
20260508170025 63 81 7.8 14.8 0.00 0.00 0.00 48 1026.2
20260508165004 63 76 7.0 16.5 0.00 0.00 0.00 48 1026.2
20260508164025 62 79 5.2 11.3 0.00 0.00 0.00 48 1026.3
20260508163004 62 76 4.3 10.4 0.00 0.00 0.00 48 1026.4
20260508162004 63 80 3.5 7.8 0.00 0.00 0.00 48 1026.3
20260508161004 63 87 3.5 7.8 0.00 0.00 0.00 47 1026.2
20260508160004 63 90 4.3 10.4 0.00 0.00 0.00 46 1026.2
20260508155004 64 87 5.2 10.4 0.00 0.00 0.00 46 1026.1
20260508154004 64 89 5.2 11.3 0.00 0.00 0.00 45 1026.1
20260508153004 64 83 5.2 11.3 0.00 0.00 0.00 44 1026.1
20260508152025 64 85 4.3 9.6 0.00 0.00 0.00 44 1026.2
20260508151004 64 92 5.2 10.4 0.00 0.00 0.00 43 1026.2
20260508150005 64 92 5.2 11.3 0.00 0.00 0.00 43 1026.3
20260508145004 64 90 5.2 11.3 0.00 0.00 0.00 43 1026.3
20260508144004 64 92 5.2 13.0 0.00 0.00 0.00 44 1026.4
20260508143025 64 88 5.2 11.3 0.00 0.00 0.00 44 1026.5
20260508142004 64 95 5.2 11.3 0.00 0.00 0.00 45 1026.5
20260508141004 64 95 5.2 11.3 0.00 0.00 0.00 46 1026.5
20260508140004 65 91 6.1 13.0 0.00 0.00 0.00 46 1026.5
20260508135025 65 92 7.0 12.2 0.00 0.00 0.00 47 1026.5
20260508134004 65 102 6.1 14.8 0.00 0.00 0.00 48 1026.4
20260508133004 65 96 6.1 13.0 0.00 0.00 0.00 49 1026.4
20260508132004 64 100 4.3 9.6 0.00 0.00 0.00 50 1026.4
20260508131004 64 95 4.3 11.3 0.00 0.00 0.00 51 1026.5
20260508130004 64 93 3.5 7.8 0.00 0.00 0.00 51 1026.4
20260508125004 65 100 2.6 7.0 0.00 0.00 0.00 51 1026.3
20260508124004 65 115 3.5 7.8 0.00 0.00 0.00 50 1026.2
20260508123005 65 112 4.3 8.7 0.00 0.00 0.00 50 1026.3
20260508122025 65 116 4.3 8.7 0.00 0.00 0.00 50 1026.3
20260508121004 66 113 4.3 8.7 0.00 0.00 0.00 50 1026.2
20260508120004 66 123 4.3 10.4 0.00 0.00 0.00 49 1026.3
20260508115004 66 119 4.3 9.6 0.00 0.00 0.00 49 1026.2
20260508114025 66 124 5.2 10.4 0.00 0.00 0.00 49 1026.1
20260508113005 66 125 5.2 9.6 0.00 0.00 0.00 49 1026.1
20260508112004 67 123 5.2 11.3 0.00 0.00 0.00 48 1026.2
20260508111025 67 126 4.3 8.7 0.00 0.00 0.00 49 1026.2
20260508110004 67 125 4.3 8.7 0.00 0.00 0.00 48 1026.2
20260508105004 67 121 3.5 8.7 0.00 0.00 0.00 48 1026.3
20260508104004 68 114 4.3 8.7 0.00 0.00 0.00 47 1026.3
20260508103025 68 109 3.5 9.6 0.00 0.00 0.00 47 1026.1
20260508102025 68 123 4.3 7.0 0.00 0.00 0.00 46 1026.2
20260508101004 69 116 4.3 7.8 0.00 0.00 0.00 46 1026.1
20260508100004 69 120 4.3 9.6 0.00 0.00 0.00 46 1026.0
20260508095004 69 121 4.3 7.8 0.00 0.00 0.00 46 1026.0
20260508094004 70 122 6.1 11.3 0.00 0.00 0.00 45 1025.9
20260508093004 70 122 7.0 12.2 0.00 0.00 0.00 45 1025.8
20260508092004 71 124 6.1 13.0 0.00 0.00 0.00 45 1025.7
20260508091025 72 132 5.2 12.2 0.00 0.00 0.00 45 1025.7
20260508090004 72 117 5.2 13.0 0.00 0.00 0.00 43 1025.5
20260508085025 72 127 5.2 12.2 0.00 0.00 0.00 42 1025.5
20260508084004 73 125 4.3 10.4 0.00 0.00 0.00 42 1025.5
20260508083004 73 109 6.1 12.2 0.00 0.00 0.00 42 1025.3
20260508082004 73 110 6.1 11.3 0.00 0.00 0.00 40 1025.4
20260508081025 73 95 7.0 13.9 0.00 0.00 0.00 40 1025.4
20260508080004 73 122 7.0 14.8 0.00 0.00 0.00 41 1025.5
20260508075004 73 131 6.1 14.8 0.00 0.00 0.00 41 1025.4
20260508074004 73 106 6.1 13.9 0.00 0.00 0.00 41 1025.5
20260508073004 74 98 6.1 13.9 0.00 0.00 0.00 41 1025.4
20260508072004 74 99 5.2 12.2 0.00 0.00 0.00 40 1025.5
20260508071025 74 124 4.3 10.4 0.00 0.00 0.00 42 1025.3
20260508070004 74 108 6.1 13.0 0.00 0.00 0.00 42 1025.4
20260508065025 74 101 6.1 13.9 0.00 0.00 0.00 41 1025.5
20260508064004 74 122 6.1 12.2 0.00 0.00 0.00 43 1025.5
20260508063004 74 91 6.1 12.2 0.00 0.00 0.00 42 1025.7
20260508062003 74 105 5.2 11.3 0.00 0.00 0.00 43 1025.7
20260508061004 73 105 6.1 11.3 0.00 0.00 0.00 41 1025.9
20260508060004 73 92 6.1 11.3 0.00 0.00 0.00 42 1026.0
20260508055003 72 118 7.0 12.2 0.00 0.00 0.00 43 1026.2
20260508054004 73 100 6.1 13.9 0.00 0.00 0.00 43 1026.3
20260508053004 72 113 7.0 12.2 0.00 0.00 0.00 45 1026.4
20260508052003 72 85 6.1 13.0 0.00 0.00 0.00 45 1026.5
20260508051003 72 74 7.0 13.0 0.00 0.00 0.00 46 1026.6
20260508050004 72 80 7.0 15.6 0.00 0.00 0.00 45 1026.7
20260508045004 72 72 7.8 13.0 0.00 0.00 0.00 46 1026.9
20260508044004 70 121 7.0 17.4 0.00 0.00 0.00 47 1027.0
20260508043004 71 97 5.2 12.2 0.00 0.00 0.00 50 1027.4
20260508042003 70 106 6.1 12.2 0.00 0.00 0.00 51 1027.5
20260508041004 70 89 7.0 15.6 0.00 0.00 0.00 52 1027.7
20260508040004 69 83 7.8 14.8 0.00 0.00 0.00 52 1027.9
20260508035024 69 74 7.8 14.8 0.00 0.00 0.00 52 1028.1
20260508034003 68 75 8.7 15.6 0.00 0.00 0.00 52 1028.5
20260508033003 68 86 8.7 17.4 0.00 0.00 0.00 52 1028.7
20260508032003 68 85 8.7 17.4 0.00 0.00 0.00 53 1028.7
20260508031003 68 77 7.0 19.1 0.00 0.00 0.00 53 1028.9
20260508030004 68 65 8.7 17.4 0.00 0.00 0.00 53 1029.0
20260508025003 67 68 8.7 17.4 0.00 0.00 0.00 53 1029.0
20260508024003 66 80 7.8 15.6 0.00 0.00 0.00 56 1029.1
20260508023003 66 80 8.7 15.6 0.00 0.00 0.00 57 1029.3